This is the latest recevied weather packets stored in our database for station/object wb2ifs-13. If no packets are shown the sender has not sent any weather packets the latest 10 day(s).
| Time | Temp. | Humidity | Pressure | Rain* | Wind** | Luminosity | Snow |
|---|---|---|---|---|---|---|---|
| 1778117400 | 18.33° C | 92% | 1010.2 hPa | 0 mm | - | - | - |
| 1778116500 | 18.33° C | 93% | 1010.5 hPa | 0 mm | - | - | - |
| 1778115602 | 17.78° C | 92% | 1010.4 hPa | 0 mm | - | - | - |
| 1778114701 | 17.78° C | 92% | 1010.2 hPa | 0 mm | - | - | - |
| 1778113799 | 18.33° C | 91% | 1010.2 hPa | 0 mm | - | - | - |
| 1778112899 | 18.33° C | 90% | 1010.1 hPa | 0 mm | - | - | - |
| 1778112002 | 18.89° C | 88% | 1009.9 hPa | 0 mm | - | - | - |
| 1778111099 | 19.44° C | 86% | 1009.7 hPa | 0 mm | - | - | - |
| 1778110201 | 20° C | 84% | 1009.6 hPa | 0 mm | - | - | - |
| 1778109300 | 20° C | 83% | 1009.5 hPa | 0 mm | - | - | - |
| 1778108401 | 20.56° C | 82% | 1009.4 hPa | 0 mm | - | - | - |
| 1778107499 | 20.56° C | 82% | 1009.4 hPa | 0 mm | - | - | - |
| 1778105700 | 20.56° C | 81% | 1009.4 hPa | 0 mm | - | - | - |
| 1778104803 | 20.56° C | 81% | 1009.4 hPa | 0 mm | - | - | - |
| 1778103900 | 20.56° C | 81% | 1009.5 hPa | 0 mm | - | - | - |
| 1778103000 | 20.56° C | 80% | 1009.4 hPa | 0 mm | - | - | - |
| 1778102102 | 20.56° C | 80% | 1009.2 hPa | 0 mm | - | - | - |
| 1778101202 | 20.56° C | 80% | 1009.1 hPa | 0 mm | - | - | - |
| 1778100300 | 20.56° C | 80% | 1009 hPa | 0 mm | - | - | - |
| 1778099400 | 20.56° C | 81% | 1008.9 hPa | 0 mm | - | - | - |
| 1778098499 | 20.56° C | 82% | 1008.9 hPa | 0 mm | - | - | - |
| 1778097602 | 20° C | 82% | 1008.8 hPa | 0 mm | - | - | - |
| 1778096700 | 20° C | 82% | 1008.9 hPa | 0 mm | - | - | - |
| 1778095800 | 20° C | 82% | 1009.4 hPa | 0 mm | - | - | - |
| 1778094899 | 19.44° C | 83% | 1009.6 hPa | 0 mm | - | - | - |
* Rain latest hour (hover to see other rain measurements)
** Current wind speed in m/s (hover to see current wind gust speed)